Location: Boiro
(42.6475°N, 8.8834°W)
Time: 06:51:10
(UTC+02:00)

FALCONSAT-6 - Pass Details

Date: 11 July 2022
Orbit: 555 x 585 km, 97.6° (Epoch: 10 August)

Event Time Altitude Azimuth Distance (km) Brightness Sun altitude
Exits shadow 22:56:56 - 108° (ESE) 2,104 ? -7.3°
Reaches altitude 10° 22:57:43 10° 100° (E) 1,899 ? -7.4°
Maximum altitude 23:00:05 15° 64° (ENE) 1,593 ? -7.7°
Drops below altitude 10° 23:02:27 10° 29° (NNE) 1,900 ? -8.1°
Sets 23:05:22 0° 6° (N) 2,798 ? -8.5°
